Location: Unspecified
(17.6330°N, 0.0000°E)
Time: 01:19:40
(UTC+00:00)

S-56A Canister/Altair - Pass Details

Date: 30 June 2019
Orbit: 633 x 2499 km, 38.9° (Epoch: 13 October)

Event Time Altitude Azimuth Distance (km) Brightness Sun altitude
Rises 21:40:46 0° 282° (WNW) 3,251 11.4 -36.3°
Enters shadow 21:43:58 - 261° (W) 2,265 10.2 -36.8°
Reaches altitude 10° 21:44:34 10° 256° (WSW) 2,122 - -36.9°
Maximum altitude 21:46:52 13° 226° (SW) 1,824 - -37.3°
Drops below altitude 10° 21:49:04 10° 196° (SSW) 2,004 - -37.6°
Sets 21:52:28 0° 168° (SSE) 2,923 - -38.1°
